Probability
0 0 0 0 0 0 0 0 0 0 0 0 0 0 0 0 0 0 0 0 0 0 0 0 0 0 0 0 0 0 0 0 0 0 0 0 0 0 0 0 0 0 0
0 0 0 0 0 0 0 0 0 0 0 0 0 0 0 0 0 0 0 0 0 0 0 0 0 0 0 0 0 0 0 0 0 0 0 0 0 0 0 0 0 0 0
0 0 0 0 0 0 0 0 0 0 0 0 0 0 0 0 0 0 0 0 0 0 0 0 0 0 0 0 0 0 0 0 0 0 0 0 0 0 0 0 0 0 0
0 0 0 0 0 0 0 0 0 0 0 0 0 0 0 0 0 0 0 0 0 0 0 0 0 0 0 0 0 0 0 0 0 0 0 0 0 0 0 0 0 0 0
0 0 0 0 0 0 0 0 0 0 0 0 0 0 0 0 0 0 0 0 0 0 0 0 0 0 0 0 0 0 0 0 0 0 0 0 0 0 0 0 0 0 0
0 0 0 0 0 0 0 0 0 0 0 0 0 0 0 0 0 0 0 0 0 0 0 0 0 0 0 0 0 0 0 0 0 0 0 0 0 0 0 0 0 0 0
0 0 0 0 0 0 0 0 0 0 0 0 0 0 0 0 0 0 0 0 0 0 0 0 0 0 0 0 0 0 0 0 0 0 0 0 0 0 0 0 0 0 0
0 0 0 0 0 0 0 0 0 0 0 0 0 0 0 0 0 0 0 0 0 0 0 0 0 0 0 0 0 0 0 0 0 0 0 0 0 0 0 0 0 0 0
0 0 0 0 0 0 0 0 0 0 0 0 0 0 0 0 0 0 0 0 0 0 0 0 0 0 0 0 0 0 0 0 0 0 0 0 0 0 0 0 0 0 0
0 0 0 0 0 0 0 0 0 0 0 0 0 0 0 0 0 0 0 0 0 0 0 0 0 0 0 0 0 0 0 0 0 0 0 0 0 0 0 0 0 0 0
0 0 0 0 0 0 0 0 0 0 0 0 0 0 0 0 0 0 0 0 0 0 0 0 0 0 0 0 0 0 0 0 0 0 0 0 0 0 0 0 0 0 0
0 0 0 0 0 0 0 0 0 0 0 0 0 0 0 0 0 0 0 0 0 0 0 0 0 0 0 0 0 0 0 0 0 0 0 0 0 0 0 0 0 0 0
0 0 0 0 0 0 0 0 0 0 0 0 0 0 0 0 0 0 0 0 0 0 0 0 0 0 0 0 0 0 0 0 0 0 0 0 0 0 0 0 0 0 0
0 0 0 0 0 0 0 0 0 0 0 0 0 0 0 0 0 0 0 0 0 0 0 0 0 0 0 0 0 0 0 0 0 0 0 0 0 0 0 0 0 0 0
0 0 0 0 0 0 0 0 0 0 0 0 0 0 0 0 0 0 0 0 0 0 0 0 0 0 0 0 0 0 0 0 0 0 0 0 0 0 0 0 0 0 0
0 0 0 0 0 0 0 0 0 0 0 0 0 0 0 0 0 0 0 0 0 0 0 0 0 0 0 0 0 0 0 0 0 0 0 0 0 0 0 0 0 0 0
0 0 0 0 0 0 0 0 0 0 0 0 0 0 0 0 0 0 0 0 0 0 0 0 0 0 0 0 0 0 0 0 0 0 0 0 0 0 0 0 0 0 0
0 0 0 0 0 0 0 0 0 0 0 0 0 0 0 0 0 0 0 0 0 0 0 0 0 0 0 0 0 0 0 0 0 0 0 0 0 0 0 0 0 0 0
0 0 0 0 0 0 0 0 0 0 0 0 0 0 0 0 0 0 0 0 0 0 0 0 0 0 0 0 0 0 0 0 0 0 0 0 0 0 0 0 0 0 0
0 0 0 0 0 0 0 0 0 0 0 0 0 0 0 0 0 0 0 0 0 0 0 0 0 0 0 0 0 0 0 0 0 0 0 0 0 0 0 0 0 0 0
0 0 0 0 0 0 0 0 0 0 0 0 0 0 0 0 0 0 0 0 0 0 0 0 0 0 0 0 0 0 0 0 0 0 0 0 0 0 0 0 0 0 0
0 0 0 0 0 0 0 0 0 0 0 0 0 0 0 0 0 0 0 0 0 0 0 0 0 0 0 0 0 0 0 0 0 0 0 0 0 0 0 0 0 0 0
0 0 0 0 0 0 0 0 0 0 0 0 0 0 0 0 0 0 0 0 0 0 0 0 0 0 0 0 0 0 0 0 0 0 0 0 0 0 0 0 0 0 0
0 0 0 0 0 0 0 0 0 0 0 0 0 0 0 0 0 0 0 0 0 0 0 0 0 0 0 0 0 0 0 0 0 0 0 0 0 0 0 0 0 0 0
0 0 0 0 0 0 0 0 0 0 0 0 0 0 0 0 0 0 0 0 0 0 0 0 0 0 0 0 0 0 0 0 0 0 0 0 0 0 0 0 0 0 0
0 0 0 0 0 0 0 0 0 0 0 0 0 0 0 0 0 0 0 0 0 0 0 0 0 0 0 0 0 0 0 0 0 0 0 0 0 0 0 0 0 0 0
Height
5886 5886 5887 5887 5888 5888 5888 5889 5888 5888 5888 5888 5888 5887 5887 5886 5885 5884 5884 5883 5881 5880 5879 5878 5877 5875 5874 5873 5872 5871 5870 5868 5867 5866 5865 5864 5863 5861 5860 5859 5858 5857 5856
5884 5885 5886 5886 5887 5887 5887 5887 5887 5887 5887 5887 5886 5886 5885 5884 5883 5882 5881 5880 5879 5878 5877 5875 5874 5873 5872 5870 5869 5868 5866 5865 5864 5863 5862 5860 5859 5858 5857 5856 5855 5853 5852
5883 5884 5884 5885 5885 5885 5885 5886 5886 5886 5885 5885 5884 5884 5883 5882 5881 5880 5879 5878 5877 5875 5874 5873 5871 5870 5869 5867 5866 5865 5863 5862 5860 5859 5858 5857 5856 5854 5853 5852 5851 5849 5848
5881 5882 5883 5883 5883 5884 5884 5884 5884 5884 5883 5883 5882 5882 5881 5880 5879 5878 5877 5875 5874 5873 5871 5870 5868 5867 5866 5864 5863 5862 5860 5858 5857 5856 5854 5853 5852 5850 5849 5848 5846 5845 5844
5879 5880 5881 5881 5882 5882 5882 5882 5882 5882 5881 5881 5880 5879 5878 5877 5876 5875 5874 5872 5871 5870 5868 5867 5865 5864 5863 5861 5860 5858 5856 5855 5853 5851 5850 5849 5847 5846 5845 5843 5842 5841 5839
5877 5878 5879 5879 5880 5880 5880 5880 5880 5879 5879 5878 5878 5877 5876 5875 5873 5872 5871 5869 5868 5866 5865 5864 5862 5860 5859 5857 5856 5854 5852 5851 5849 5847 5846 5844 5843 5841 5839 5838 5837 5835 5834
5876 5876 5877 5877 5878 5878 5878 5878 5877 5877 5876 5876 5875 5874 5873 5872 5870 5869 5867 5866 5864 5863 5861 5860 5858 5856 5855 5853 5851 5850 5848 5846 5844 5842 5841 5839 5837 5836 5834 5832 5831 5829 5828
5873 5874 5875 5875 5875 5876 5876 5875 5875 5874 5873 5873 5872 5871 5870 5868 5867 5866 5864 5862 5861 5859 5858 5856 5854 5852 5851 5849 5847 5845 5843 5841 5839 5837 5835 5834 5832 5830 5828 5826 5825 5823 5821
5871 5872 5872 5873 5873 5873 5873 5872 5872 5871 5871 5870 5869 5867 5866 5865 5864 5862 5860 5859 5857 5855 5854 5852 5850 5848 5846 5844 5842 5840 5838 5836 5833 5831 5829 5828 5826 5824 5822 5820 5818 5816 5815
5869 5869 5870 5870 5870 5870 5870 5870 5869 5868 5867 5866 5865 5864 5863 5861 5860 5858 5857 5855 5853 5851 5849 5847 5845 5843 5841 5839 5837 5835 5833 5830 5828 5826 5823 5821 5820 5818 5816 5814 5812 5810 5808
5866 5867 5867 5867 5867 5867 5867 5867 5866 5865 5864 5863 5862 5860 5859 5857 5856 5854 5852 5850 5849 5847 5845 5843 5840 5838 5836 5834 5831 5829 5827 5825 5822 5820 5817 5815 5813 5811 5809 5807 5804 5802 5800
5863 5863 5864 5864 5864 5864 5864 5863 5862 5861 5860 5859 5858 5856 5855 5853 5851 5850 5848 5846 5844 5842 5840 5837 5835 5832 5830 5828 5825 5823 5821 5818 5816 5813 5811 5808 5806 5804 5801 5799 5797 5795 5793
5860 5860 5860 5861 5861 5860 5860 5859 5858 5857 5856 5855 5854 5852 5850 5848 5846 5845 5843 5841 5838 5836 5834 5832 5829 5827 5824 5822 5819 5817 5814 5812 5809 5806 5804 5801 5798 5796 5794 5791 5789 5787 5784
5856 5856 5857 5857 5857 5856 5856 5855 5854 5853 5852 5850 5849 5847 5845 5843 5841 5839 5837 5835 5833 5831 5828 5826 5823 5821 5818 5815 5813 5810 5807 5805 5802 5799 5796 5793 5791 5788 5786 5783 5781 5778 5776
5853 5853 5853 5853 5852 5852 5851 5851 5850 5848 5847 5846 5844 5842 5840 5838 5836 5834 5832 5829 5827 5825 5822 5820 5817 5814 5812 5809 5806 5803 5800 5797 5795 5792 5789 5786 5783 5780 5777 5774 5772 5769 5766
5848 5849 5849 5849 5848 5848 5847 5846 5845 5843 5842 5840 5838 5836 5834 5832 5830 5828 5826 5823 5821 5818 5816 5813 5810 5808 5805 5802 5799 5796 5793 5790 5787 5784 5781 5778 5774 5771 5768 5765 5763 5760 5757
5843 5844 5844 5844 5844 5843 5843 5841 5840 5838 5836 5835 5833 5830 5828 5826 5824 5822 5820 5817 5814 5812 5809 5806 5803 5801 5798 5794 5791 5788 5785 5782 5779 5776 5772 5769 5766 5762 5759 5756 5753 5750 5747
5837 5838 5838 5839 5839 5838 5837 5836 5834 5832 5831 5829 5827 5824 5822 5820 5817 5815 5813 5810 5807 5805 5802 5799 5796 5793 5790 5787 5784 5780 5777 5774 5770 5767 5764 5760 5757 5753 5750 5747 5743 5740 5737
5831 5831 5832 5832 5832 5831 5830 5829 5828 5826 5824 5822 5820 5817 5815 5813 5810 5808 5806 5803 5800 5797 5794 5791 5788 5785 5782 5779 5775 5772 5768 5765 5761 5758 5755 5751 5747 5744 5740 5737 5733 5730 5727
5825 5825 5825 5825 5824 5824 5823 5822 5820 5819 5817 5815 5812 5810 5808 5805 5803 5801 5798 5795 5792 5790 5787 5784 5781 5777 5774 5771 5767 5764 5760 5756 5752 5749 5745 5742 5738 5734 5730 5727 5723 5720 5717
5819 5819 5818 5818 5817 5816 5815 5814 5812 5811 5809 5807 5805 5802 5800 5798 5795 5793 5790 5787 5785 5782 5779 5776 5773 5769 5766 5763 5759 5756 5752 5748 5744 5740 5736 5732 5728 5724 5720 5716 5713 5709 5706
5811 5811 5811 5810 5809 5808 5807 5806 5804 5803 5801 5799 5797 5794 5792 5790 5787 5785 5782 5780 5777 5774 5771 5768 5764 5761 5758 5754 5751 5747 5744 5740 5735 5731 5726 5722 5718 5714 5710 5706 5702 5699 5695
5803 5803 5803 5802 5801 5800 5799 5798 5796 5795 5793 5791 5789 5786 5784 5782 5779 5777 5774 5771 5768 5766 5762 5759 5756 5753 5749 5746 5742 5739 5735 5732 5728 5723 5718 5713 5708 5704 5700 5696 5692 5688 5684
5794 5794 5794 5794 5793 5792 5791 5789 5788 5787 5785 5783 5780 5778 5776 5773 5771 5768 5766 5763 5760 5757 5754 5751 5748 5744 5741 5737 5734 5730 5726 5722 5718 5714 5709 5704 5699 5694 5690 5685 5681 5677 5674
5786 5786 5785 5785 5784 5783 5782 5781 5779 5778 5776 5774 5772 5770 5767 5765 5763 5760 5757 5755 5752 5749 5746 5743 5739 5736 5732 5729 5725 5721 5717 5713 5708 5704 5700 5695 5690 5684 5679 5675 5670 5666 5663
5777 5777 5777 5776 5775 5774 5773 5772 5771 5769 5767 5765 5763 5761 5759 5757 5754 5752 5749 5746 5744 5741 5738 5734 5731 5727 5724 5720 5716 5712 5708 5703 5699 5694 5690 5686 5681 5675 5670 5664 5660 5655 5651
Wind_Speed
9 9 8 7 7 6 6 6 7 7 8 9 10 11 11 12 13 13 14 14 15 16 16 17 18 18 18 19 19 19 19 20 20 21 21 21 21 21 22 22 22 22 23
10 9 9 8 7 7 7 7 8 8 9 10 11 11 12 13 13 14 15 16 16 17 17 18 18 19 19 19 19 19 20 20 21 21 21 21 21 21 22 22 22 23 23
11 10 10 9 8 8 8 8 9 9 10 11 11 12 13 14 15 16 16 17 17 18 18 19 19 19 19 19 19 20 20 21 21 22 22 22 22 23 23 23 24 24 24
11 11 10 10 9 9 9 9 10 10 11 12 13 14 15 16 16 17 17 17 18 19 19 19 19 20 20 20 21 21 22 23 23 24 24 24 24 25 25 26 26 26 26
11 10 10 9 9 9 9 9 10 11 12 14 14 15 16 16 17 17 18 19 19 19 20 20 20 21 21 22 22 23 23 24 24 25 25 26 26 26 27 27 28 28 28
11 10 10 9 9 9 9 10 11 12 14 14 15 15 16 17 18 18 19 20 20 20 21 21 22 22 22 23 23 24 24 25 25 26 26 26 27 27 28 28 29 29 30
11 10 10 9 9 10 10 12 13 14 14 15 16 16 17 18 19 19 20 20 20 21 22 22 23 23 24 24 24 25 26 26 27 27 27 27 28 28 29 29 30 30 31
11 10 10 10 11 11 13 14 14 14 15 15 16 17 18 19 19 20 20 20 21 22 23 23 24 24 25 25 26 26 27 27 28 28 28 28 29 30 30 31 31 31 32
11 11 11 11 12 12 13 13 13 14 15 16 17 18 19 19 20 21 21 22 23 24 24 25 25 26 26 27 27 27 28 28 29 29 30 30 30 31 31 32 32 32 33
12 12 12 12 12 12 12 13 14 15 16 17 18 19 20 21 22 22 23 23 24 25 25 26 26 27 27 28 28 29 29 29 30 31 31 32 32 32 32 32 33 33 34
12 12 12 12 12 13 13 14 16 17 18 18 19 20 22 22 23 24 24 25 25 26 26 27 27 28 29 29 29 30 30 31 31 32 33 33 34 34 34 34 34 35 35
13 13 13 13 14 14 15 16 17 19 19 20 21 22 23 24 25 25 26 26 27 27 28 28 28 29 30 30 30 31 31 32 33 33 34 35 35 35 35 35 36 37 37
14 14 14 15 15 16 17 18 18 20 21 21 22 23 24 25 26 27 27 28 28 28 29 29 30 30 31 31 32 32 33 34 34 34 35 35 36 36 36 37 37 38 38
15 15 15 16 17 18 18 19 20 21 22 23 24 25 26 27 28 29 29 29 30 30 30 31 31 32 32 33 33 34 34 34 35 35 36 36 37 38 38 38 39 39 40
16 16 16 17 18 19 20 21 22 23 24 25 26 27 27 28 29 30 30 31 31 32 32 32 33 33 34 34 35 35 35 35 36 36 37 38 38 39 39 39 40 40 41
17 17 17 18 20 21 22 23 24 25 26 27 28 29 29 30 31 31 32 32 32 33 34 34 34 34 35 36 36 36 36 37 37 37 38 39 39 40 40 41 41 42 42
20 20 20 20 21 23 24 25 26 27 28 29 30 30 31 32 32 33 33 33 34 35 35 35 35 36 36 37 37 37 37 38 39 39 39 39 40 41 41 42 43 43 43
23 23 23 23 24 25 26 26 27 29 30 31 31 32 32 33 34 34 34 35 36 36 36 36 36 36 37 37 38 38 38 39 40 40 40 41 41 42 42 43 43 44 44
25 26 26 27 27 28 29 29 30 31 32 33 33 33 34 34 35 35 36 36 37 37 37 37 37 37 38 38 38 39 39 40 41 41 41 41 42 43 43 43 44 44 44
27 28 28 29 30 31 31 32 32 33 34 34 35 35 35 36 36 36 37 37 37 38 38 38 38 38 39 39 39 39 40 41 41 41 42 42 42 43 43 43 44 44 44
30 31 31 32 32 33 33 34 34 35 35 35 35 36 37 37 37 38 38 38 38 38 38 39 39 39 39 39 39 40 40 41 42 42 43 43 43 43 44 44 44 44 44
33 32 33 33 33 33 34 35 35 35 35 35 36 37 38 38 38 38 38 38 38 39 39 39 39 39 39 39 40 40 40 41 42 42 43 44 44 45 45 45 45 44 44
33 33 33 34 34 35 35 35 36 36 36 36 37 38 38 38 38 38 38 38 39 39 39 39 39 39 40 40 40 40 41 41 41 42 43 44 45 45 45 45 45 45 45
34 34 35 35 35 35 35 36 36 36 37 37 38 38 38 38 38 38 38 38 38 39 39 40 40 40 40 40 40 41 42 42 43 43 43 44 44 44 45 45 45 45 45
34 34 35 35 35 35 35 36 37 37 37 37 37 37 37 37 38 38 38 38 38 39 39 39 40 40 40 41 41 42 43 44 44 44 44 44 44 45 45 45 45 45 45
34 34 34 35 35 35 35 36 36 37 37 36 36 37 37 37 38 38 38 38 38 38 39 39 40 41 41 42 43 43 44 45 45 45 45 44 44 44 45 46 46 46 46
Wind_Direction
215 217 221 225 230 237 246 257 267 275 280 284 288 291 293 295 295 296 297 297 297 297 297 297 297 296 296 295 294 293 292 291 289 288 287 286 284 282 280 278 277 275 273
218 221 226 230 236 245 254 263 270 274 278 283 286 288 290 291 293 294 295 295 296 296 297 297 296 296 295 295 294 294 292 291 291 291 290 288 286 285 283 281 280 278 277
219 224 230 238 244 252 259 264 270 275 279 283 285 287 288 290 292 293 293 294 295 296 296 296 296 295 295 295 295 294 293 292 292 291 290 289 288 286 285 283 282 281 279
222 227 234 241 247 253 259 265 269 274 279 283 286 286 288 290 291 292 293 294 295 295 295 296 296 295 295 295 295 294 293 293 292 291 290 289 288 287 285 284 283 282 281
225 229 235 242 247 253 260 265 270 276 281 285 287 288 289 290 292 293 294 294 295 295 294 295 295 295 294 294 293 292 292 291 291 290 289 288 288 287 286 285 283 282 281
228 233 237 244 249 256 262 268 275 280 283 284 287 289 290 291 292 293 294 295 295 295 295 295 295 295 294 293 293 293 292 291 291 290 289 289 288 287 286 285 284 283 281
231 235 239 246 252 259 267 273 278 281 283 285 287 288 290 291 292 293 294 295 295 295 296 296 295 294 293 293 293 294 293 292 291 290 289 289 288 287 286 285 284 283 282
232 236 242 250 258 266 272 277 280 282 285 287 288 289 290 291 293 294 295 295 295 295 296 296 295 294 293 293 294 294 294 293 292 290 289 289 288 287 287 286 285 283 282
234 240 248 256 264 270 275 280 282 285 287 288 290 291 292 293 293 294 295 295 295 295 295 295 295 294 293 293 293 294 293 293 292 291 290 289 289 288 288 287 285 284 283
239 246 254 261 267 273 278 281 285 287 289 290 292 293 293 294 295 294 294 295 295 295 295 295 295 294 293 293 293 293 292 292 291 290 290 290 289 288 287 286 285 284 283
244 250 257 265 271 277 281 285 287 289 290 291 293 294 295 296 296 295 295 295 295 295 296 295 295 294 294 293 293 292 292 291 290 290 290 289 289 288 287 286 285 284 283
248 255 263 268 273 279 283 287 289 291 292 292 293 295 296 296 296 295 295 294 295 296 296 296 296 295 294 294 293 293 292 291 290 289 289 289 289 288 287 286 286 285 284
253 260 266 270 275 280 285 288 290 292 293 294 295 296 297 297 297 296 295 295 295 295 296 295 295 294 294 293 293 292 292 291 290 290 289 289 289 288 288 287 286 285 284
256 262 267 272 277 282 285 288 290 293 294 295 296 296 296 297 297 297 296 295 295 296 295 295 294 294 294 293 293 292 292 291 291 290 289 289 289 289 288 288 287 286 285
259 264 268 274 278 282 285 288 290 293 294 295 296 296 296 296 297 297 296 295 295 295 295 295 295 294 294 294 293 293 292 291 291 291 290 290 289 289 289 288 287 286 285
261 265 269 274 279 282 285 288 290 292 294 295 295 296 295 295 295 295 295 295 295 295 295 295 295 294 294 294 293 293 292 292 291 291 291 290 290 290 289 289 288 287 286
264 267 271 274 278 281 284 286 288 291 292 293 294 294 294 294 294 294 294 294 295 295 295 294 293 293 294 294 294 293 292 292 292 292 292 291 291 290 290 289 288 287 286
266 270 273 277 279 281 283 285 287 289 291 292 293 293 293 293 293 293 293 293 294 294 295 294 293 294 294 295 294 294 293 293 293 293 293 292 292 291 291 290 289 288 287
268 272 275 278 280 282 284 286 287 288 290 291 292 292 292 292 292 292 292 293 293 294 294 294 293 294 295 295 295 295 295 295 294 294 294 294 293 293 292 291 290 289 287
269 271 275 278 280 282 284 285 286 287 289 290 290 291 291 291 291 291 291 292 293 293 293 293 293 294 295 295 295 296 297 297 296 296 296 295 295 294 294 293 291 290 289
269 272 274 277 278 280 283 284 286 287 288 289 289 290 290 290 290 290 291 292 292 293 293 293 294 294 295 295 296 297 298 298 298 297 297 297 297 296 295 294 293 292 290
270 272 273 275 278 279 281 283 284 285 286 287 287 288 289 289 289 290 290 291 291 292 293 294 294 294 294 296 296 297 298 298 298 298 299 299 298 297 296 295 294 293 291
269 271 273 275 277 279 280 281 282 283 285 285 286 287 288 288 289 289 289 289 290 291 292 293 294 294 295 296 296 297 298 298 298 299 299 299 299 298 297 296 295 294 293
269 271 273 275 276 278 279 280 281 283 284 284 285 286 286 287 288 288 289 289 289 291 291 293 294 295 296 296 296 297 298 299 299 300 300 300 299 299 298 296 295 294 293
268 270 272 274 276 277 278 279 280 281 282 284 285 285 286 286 287 288 288 288 289 291 291 293 294 296 296 297 297 298 299 300 300 300 301 300 300 300 298 297 296 295 294
267 269 271 273 274 276 277 278 280 281 282 283 284 284 285 286 286 287 288 288 290 291 292 293 295 296 296 297 298 299 300 301 301 301 301 300 300 300 299 298 297 296 295